This is the latest recevied weather packets stored in our database for station/object KB0RPJ. If no packets are shown the sender has not sent any weather packets the latest 10 day(s).
| Time | Temp. | Humidity | Pressure | Rain* | Wind** | Luminosity | Snow |
|---|---|---|---|---|---|---|---|
| 1777663505 | 16.11° C | 39% | 1016.7 hPa | 0 mm | - | 972 W/m² | - |
| 1777663206 | 16.67° C | 37% | 1016.6 hPa | 0 mm | - | 214 W/m² | - |
| 1777662905 | 17.22° C | 39% | 1016.6 hPa | 0 mm | - | 157 W/m² | - |
| 1777662610 | 16.67° C | 39% | 1016.7 hPa | 0 mm | - | 738 W/m² | - |
| 1777662305 | 16.67° C | 37% | 1016.7 hPa | 0 mm | - | 987 W/m² | - |
| 1777662006 | 16.11° C | 38% | 1016.7 hPa | 0 mm | - | 1034 W/m² | - |
| 1777661719 | 16.11° C | 42% | 1016.7 hPa | 0 mm | - | 788 W/m² | - |
| 1777661407 | 16.11° C | 39% | 1016.8 hPa | 0 mm | - | 250 W/m² | - |
| 1777661105 | 15.56° C | 39% | 1016.8 hPa | 0 mm | - | 427 W/m² | - |
| 1777660805 | 15.56° C | 40% | 1016.8 hPa | 0 mm | - | 234 W/m² | - |
| 1777660504 | 16.11° C | 38% | 1016.8 hPa | 0 mm | - | 299 W/m² | - |
| 1777660205 | 16.11° C | 36% | 1016.7 hPa | 0 mm | - | 246 W/m² | - |
| 1777659905 | 16.67° C | 36% | 1016.9 hPa | 0 mm | - | 956 W/m² | - |
| 1777659605 | 16.67° C | 41% | 1016.7 hPa | 0 mm | - | 833 W/m² | - |
| 1777659305 | 16.11° C | 42% | 1016.8 hPa | 0 mm | - | 302 W/m² | - |
| 1777659005 | 16.11° C | 43% | 1016.9 hPa | 0 mm | - | 1080 W/m² | - |
| 1777658705 | 16.11° C | 42% | 1017 hPa | 0 mm | - | 906 W/m² | - |
| 1777658404 | 16.11° C | 41% | 1017.1 hPa | 0 mm | - | 1040 W/m² | - |
| 1777658105 | 16.11° C | 40% | 1017.1 hPa | 0 mm | - | 229 W/m² | - |
| 1777657805 | 16.11° C | 41% | 1017.1 hPa | 0 mm | - | 979 W/m² | - |
| 1777657505 | 15.56° C | 39% | 1017.1 hPa | 0 mm | - | 957 W/m² | - |
| 1777657205 | 15.56° C | 42% | 1017.3 hPa | 0 mm | - | 972 W/m² | - |
| 1777656905 | 15.56° C | 41% | 1017.5 hPa | 0 mm | - | 874 W/m² | - |
| 1777656620 | 15.56° C | 40% | 1017.4 hPa | 0 mm | - | 976 W/m² | - |
| 1777656305 | 15.56° C | 43% | 1017.5 hPa | 0 mm | - | 985 W/m² | - |
* Rain latest hour (hover to see other rain measurements)
** Current wind speed in m/s (hover to see current wind gust speed)